Private Wetterstation Wechselburg
Wetterdaten: Freitag, 05.03.2021
Datum Zeit Temp. +2m Bodentemp. Temp.+5cm Temp. Wind Windchill X Diff Temp. Feuchte +2m Feuchte +5cm Luftdruck Regen Wind Richtung Richtung Sonnenschein Taupunkt Windchill Windben
05.03.2021 00:00 0,4 C 7,0 C 1,5 C 1,2 C 1,2 C 0,8 C 88 % 93 % 1019,3 hPa 0,0 l/m 0,2 km/h (0 Bft) N-NO 22 0 min -1,3 C 1,2 C 1,8 km/h (1 Bft)
05.03.2021 00:05 0,5 C 7,0 C 1,5 C 1,2 C 1,2 C 0,7 C 88 % 93 % 1019,3 hPa 0,0 l/m 0,0 km/h (0 Bft) N-NW 337 0 min -1,3 C 1,2 C 0,0 km/h (0 Bft)
05.03.2021 00:10 0,4 C 7,0 C 1,5 C 1,2 C 1,2 C 0,8 C 88 % 93 % 1019,5 hPa 0,0 l/m 0,2 km/h (0 Bft) NW 315 0 min -1,3 C 1,2 C 2,3 km/h (1 Bft)
05.03.2021 00:15 0,4 C 7,0 C 1,5 C 1,2 C 1,2 C 0,8 C 88 % 93 % 1019,5 hPa 0,0 l/m 0,2 km/h (0 Bft) N-NW 337 0 min -1,3 C 1,2 C 0,0 km/h (0 Bft)
05.03.2021 00:20 0,4 C 7,0 C 1,4 C 1,2 C 1,2 C 0,8 C 88 % 93 % 1019,5 hPa 0,0 l/m 0,3 km/h (0 Bft) N-NW 337 0 min -1,3 C 1,2 C 3,9 km/h (1 Bft)
05.03.2021 00:25 0,5 C 7,0 C 1,3 C 1,2 C 1,2 C 0,7 C 88 % 93 % 1019,5 hPa 0,0 l/m 0,8 km/h (0 Bft) SW 225 0 min -1,3 C 1,2 C 0,0 km/h (0 Bft)
05.03.2021 00:30 0,3 C 7,0 C 1,4 C 1,1 C 1,1 C 0,8 C 88 % 93 % 1019,6 hPa 0,0 l/m 0,8 km/h (0 Bft) N-NW 337 0 min -1,4 C 1,1 C 5,6 km/h (1 Bft)
05.03.2021 00:35 0,3 C 7,0 C 1,4 C 1,1 C 1,1 C 0,8 C 88 % 93 % 1019,6 hPa 0,0 l/m 0,3 km/h (0 Bft) N-NO 22 0 min -1,4 C 1,1 C 0,0 km/h (0 Bft)
05.03.2021 00:40 0,3 C 7,0 C 1,3 C 1,0 C 1,0 C 0,7 C 88 % 93 % 1019,6 hPa 0,0 l/m 0,5 km/h (0 Bft) W 270 0 min -1,4 C 1,0 C 3,9 km/h (1 Bft)
05.03.2021 00:45 0,2 C 7,0 C 1,2 C 1,0 C 1,0 C 0,8 C 88 % 93 % 1019,6 hPa 0,0 l/m 0,5 km/h (0 Bft) N 360 0 min -1,5 C 1,0 C 0,0 km/h (0 Bft)
05.03.2021 00:50 0,3 C 7,0 C 1,2 C 1,0 C 1,0 C 0,7 C 88 % 93 % 1019,7 hPa 0,0 l/m 0,6 km/h (0 Bft) NW 315 0 min -1,4 C 1,0 C 0,0 km/h (0 Bft)
05.03.2021 00:55 0,3 C 7,0 C 1,2 C 0,9 C 0,9 C 0,6 C 88 % 93 % 1019,7 hPa 0,0 l/m 0,6 km/h (0 Bft) NW 315 0 min -1,4 C 0,9 C 1,8 km/h (1 Bft)
05.03.2021 01:00 0,3 C 6,9 C 1,1 C 0,9 C 0,9 C 0,6 C 88 % 93 % 1019,7 hPa 0,0 l/m 1,0 km/h (0 Bft) W 270 0 min -1,4 C 0,9 C 1,9 km/h (1 Bft)
05.03.2021 01:05 0,1 C 6,9 C 1,2 C 0,9 C 0,9 C 0,8 C 88 % 93 % 1019,7 hPa 0,0 l/m 0,8 km/h (0 Bft) SW 225 0 min -1,6 C 0,9 C 0,0 km/h (0 Bft)
05.03.2021 01:10 0,1 C 6,9 C 1,2 C 0,9 C 0,9 C 0,8 C 89 % 93 % 1019,9 hPa 0,0 l/m 0,5 km/h (0 Bft) NW 315 0 min -1,5 C 0,9 C 0,0 km/h (0 Bft)
05.03.2021 01:15 0,1 C 6,9 C 1,2 C 0,9 C 0,9 C 0,8 C 88 % 93 % 1019,9 hPa 0,0 l/m 0,5 km/h (0 Bft) N-NW 337 0 min -1,6 C 0,9 C 0,0 km/h (0 Bft)
05.03.2021 01:20 0,1 C 6,9 C 1,1 C 0,9 C 0,9 C 0,8 C 88 % 93 % 1019,9 hPa 0,0 l/m 0,5 km/h (0 Bft) NW 315 0 min -1,6 C 0,9 C 4,8 km/h (1 Bft)
05.03.2021 01:25 0,1 C 6,9 C 1,1 C 0,9 C 0,9 C 0,8 C 88 % 93 % 1019,9 hPa 0,0 l/m 1,1 km/h (1 Bft) W-NW 292 0 min -1,6 C 0,9 C 3,9 km/h (1 Bft)
05.03.2021 01:30 0,1 C 6,9 C 1,1 C 0,9 C 0,9 C 0,8 C 89 % 93 % 1020,1 hPa 0,0 l/m 1,1 km/h (1 Bft) N-NW 337 0 min -1,5 C 0,9 C 2,9 km/h (1 Bft)
05.03.2021 01:35 0,0 C 6,9 C 1,1 C 0,9 C 0,9 C 0,9 C 89 % 93 % 1020,1 hPa 0,0 l/m 1,0 km/h (0 Bft) N-NW 337 0 min -1,6 C 0,9 C 0,0 km/h (0 Bft)
05.03.2021 01:40 0,0 C 6,9 C 1,1 C 0,9 C 0,9 C 0,9 C 89 % 93 % 1020,1 hPa 0,0 l/m 0,5 km/h (0 Bft) NW 315 0 min -1,6 C 0,9 C 0,0 km/h (0 Bft)
05.03.2021 01:45 0,0 C 6,9 C 1,1 C 0,9 C 0,9 C 0,9 C 89 % 93 % 1020,1 hPa 0,0 l/m 0,2 km/h (0 Bft) NW 315 0 min -1,6 C 0,9 C 0,0 km/h (0 Bft)
05.03.2021 01:50 0,0 C 6,9 C 1,1 C 0,9 C 0,9 C 0,9 C 89 % 93 % 1019,9 hPa 0,0 l/m 0,6 km/h (0 Bft) N 360 0 min -1,6 C 0,9 C 0,0 km/h (0 Bft)
05.03.2021 01:55 -0,1 C 6,9 C 1,1 C 0,9 C 0,9 C 1,0 C 89 % 93 % 1019,9 hPa 0,0 l/m 0,8 km/h (0 Bft) N-NW 337 0 min -1,7 C 0,9 C 1,6 km/h (1 Bft)
05.03.2021 02:00 -0,1 C 6,9 C 1,1 C 1,0 C 1,0 C 1,1 C 89 % 93 % 1019,9 hPa 0,0 l/m 0,5 km/h (0 Bft) NW 315 0 min -1,7 C 1,0 C 4,5 km/h (1 Bft)
05.03.2021 02:05 0,0 C 6,9 C 1,2 C 1,0 C 1,0 C 1,0 C 89 % 93 % 1019,9 hPa 0,0 l/m 0,3 km/h (0 Bft) NW 315 0 min -1,6 C 1,0 C 0,0 km/h (0 Bft)
05.03.2021 02:10 0,0 C 6,9 C 1,1 C 1,0 C 1,0 C 1,0 C 89 % 93 % 1020,0 hPa 0,0 l/m 0,5 km/h (0 Bft) N-NW 337 0 min -1,6 C 1,0 C 0,0 km/h (0 Bft)
05.03.2021 02:15 0,0 C 6,9 C 1,2 C 1,0 C 1,0 C 1,0 C 89 % 93 % 1020,0 hPa 0,0 l/m 0,3 km/h (0 Bft) NW 315 0 min -1,6 C 1,0 C 0,0 km/h (0 Bft)
05.03.2021 02:20 0,1 C 6,9 C 1,1 C 1,0 C 1,0 C 0,9 C 89 % 93 % 1020,0 hPa 0,0 l/m 0,3 km/h (0 Bft) NW 315 0 min -1,5 C 1,0 C 0,0 km/h (0 Bft)
05.03.2021 02:25 -0,1 C 6,9 C 1,1 C 1,0 C 1,0 C 1,1 C 89 % 93 % 1020,0 hPa 0,0 l/m 0,5 km/h (0 Bft) W 270 0 min -1,7 C 1,0 C 0,0 km/h (0 Bft)
05.03.2021 02:30 0,1 C 6,9 C 1,1 C 1,0 C 1,0 C 0,9 C 89 % 93 % 1019,9 hPa 0,0 l/m 1,1 km/h (1 Bft) NW 315 0 min -1,5 C 1,0 C 6,6 km/h (2 Bft)
05.03.2021 02:35 0,0 C 6,9 C 1,2 C 1,0 C 1,0 C 1,0 C 89 % 93 % 1019,9 hPa 0,0 l/m 0,8 km/h (0 Bft) N-NW 337 0 min -1,6 C 1,0 C 2,3 km/h (1 Bft)
05.03.2021 02:40 0,0 C 6,9 C 1,2 C 1,1 C 1,1 C 1,1 C 89 % 93 % 1019,9 hPa 0,0 l/m 0,3 km/h (0 Bft) SW 225 0 min -1,6 C 1,1 C 3,4 km/h (1 Bft)
05.03.2021 02:45 0,0 C 6,9 C 1,2 C 1,1 C 1,1 C 1,1 C 89 % 93 % 1019,9 hPa 0,0 l/m 0,5 km/h (0 Bft) W-NW 292 0 min -1,6 C 1,1 C 0,0 km/h (0 Bft)
05.03.2021 02:50 0,0 C 6,9 C 1,3 C 1,1 C 1,1 C 1,1 C 89 % 93 % 1019,8 hPa 0,0 l/m 0,3 km/h (0 Bft) W 270 0 min -1,6 C 1,1 C 0,0 km/h (0 Bft)
05.03.2021 02:55 0,0 C 6,9 C 1,3 C 1,1 C 1,1 C 1,1 C 89 % 93 % 1019,8 hPa 0,0 l/m 0,0 km/h (0 Bft) W 270 0 min -1,6 C 1,1 C 0,0 km/h (0 Bft)
05.03.2021 03:00 0,0 C 6,9 C 1,3 C 1,1 C 1,1 C 1,1 C 89 % 93 % 1019,8 hPa 0,0 l/m 0,6 km/h (0 Bft) W-NW 292 0 min -1,6 C 1,1 C 0,0 km/h (0 Bft)
05.03.2021 03:05 0,0 C 6,9 C 1,3 C 1,2 C 1,2 C 1,2 C 89 % 93 % 1019,8 hPa 0,0 l/m 0,8 km/h (0 Bft) NW 315 0 min -1,6 C 1,2 C 0,0 km/h (0 Bft)
05.03.2021 03:10 0,0 C 6,9 C 1,3 C 1,2 C 1,2 C 1,2 C 89 % 93 % 1019,7 hPa 0,0 l/m 0,8 km/h (0 Bft) NW 315 0 min -1,6 C 1,2 C 0,0 km/h (0 Bft)
05.03.2021 03:15 0,0 C 6,9 C 1,2 C 1,2 C 1,2 C 1,2 C 89 % 93 % 1019,7 hPa 0,0 l/m 0,2 km/h (0 Bft) W 270 0 min -1,6 C 1,2 C 2,6 km/h (1 Bft)
05.03.2021 03:20 0,0 C 6,9 C 1,2 C 1,1 C 1,1 C 1,1 C 89 % 93 % 1019,7 hPa 0,0 l/m 1,1 km/h (1 Bft) NW 315 0 min -1,6 C 1,1 C 7,7 km/h (2 Bft)
05.03.2021 03:25 0,0 C 6,9 C 1,2 C 1,1 C 1,1 C 1,1 C 89 % 93 % 1019,7 hPa 0,0 l/m 1,6 km/h (1 Bft) W 270 0 min -1,6 C 1,1 C 0,0 km/h (0 Bft)
05.03.2021 03:30 0,0 C 6,9 C 1,3 C 1,1 C 1,1 C 1,1 C 89 % 93 % 1019,9 hPa 0,0 l/m 1,0 km/h (0 Bft) W-NW 292 0 min -1,6 C 1,1 C 0,0 km/h (0 Bft)
05.03.2021 03:35 0,0 C 6,9 C 1,3 C 1,1 C 1,1 C 1,1 C 89 % 93 % 1019,9 hPa 0,0 l/m 0,5 km/h (0 Bft) NW 315 0 min -1,6 C 1,1 C 4,5 km/h (1 Bft)
05.03.2021 03:40 0,0 C 6,8 C 1,3 C 1,2 C 1,2 C 1,2 C 89 % 93 % 1019,9 hPa 0,0 l/m 0,6 km/h (0 Bft) W-NW 292 0 min -1,6 C 1,2 C 3,2 km/h (1 Bft)
05.03.2021 03:45 0,0 C 6,8 C 1,3 C 1,2 C 1,2 C 1,2 C 89 % 93 % 1019,9 hPa 0,0 l/m 0,8 km/h (0 Bft) W-SW 247 0 min -1,6 C 1,2 C 0,0 km/h (0 Bft)
05.03.2021 03:50 0,0 C 6,8 C 1,3 C 1,2 C 1,2 C 1,2 C 89 % 93 % 1020,0 hPa 0,0 l/m 0,5 km/h (0 Bft) NW 315 0 min -1,6 C 1,2 C 0,0 km/h (0 Bft)
05.03.2021 03:55 0,0 C 6,8 C 1,3 C 1,2 C 1,2 C 1,2 C 89 % 93 % 1020,0 hPa 0,0 l/m 0,3 km/h (0 Bft) W-NW 292 0 min -1,6 C 1,2 C 0,0 km/h (0 Bft)
05.03.2021 04:00 0,0 C 6,8 C 1,3 C 1,2 C 1,2 C 1,2 C 89 % 93 % 1020,0 hPa 0,0 l/m 0,5 km/h (0 Bft) W-NW 292 0 min -1,6 C 1,2 C 0,0 km/h (0 Bft)
05.03.2021 04:05 0,0 C 6,8 C 1,3 C 1,2 C 1,2 C 1,2 C 89 % 93 % 1020,0 hPa 0,0 l/m 1,3 km/h (1 Bft) N-NW 337 0 min -1,6 C 1,2 C 2,7 km/h (1 Bft)
05.03.2021 04:10 0,0 C 6,8 C 1,3 C 1,2 C 1,2 C 1,2 C 89 % 93 % 1020,2 hPa 0,0 l/m 2,4 km/h (1 Bft) N 360 0 min -1,6 C 1,2 C 8,5 km/h (2 Bft)
05.03.2021 04:15 0,0 C 6,8 C 1,2 C 1,2 C 1,2 C 1,2 C 89 % 93 % 1020,2 hPa 0,0 l/m 2,4 km/h (1 Bft) NW 315 0 min -1,6 C 1,2 C 6,8 km/h (2 Bft)
05.03.2021 04:20 0,0 C 6,8 C 1,2 C 1,1 C 1,1 C 1,1 C 89 % 93 % 1020,2 hPa 0,0 l/m 1,6 km/h (1 Bft) N-NW 337 0 min -1,6 C 1,1 C 2,7 km/h (1 Bft)
05.03.2021 04:25 0,1 C 6,8 C 1,2 C 1,1 C 1,1 C 1,0 C 89 % 93 % 1020,2 hPa 0,0 l/m 1,1 km/h (1 Bft) N-NW 337 0 min -1,5 C 1,1 C 7,6 km/h (2 Bft)
05.03.2021 04:30 0,0 C 6,8 C 1,3 C 1,1 C 1,1 C 1,1 C 89 % 93 % 1020,7 hPa 0,0 l/m 0,6 km/h (0 Bft) W-NW 292 0 min -1,6 C 1,1 C 1,9 km/h (1 Bft)
05.03.2021 04:35 0,0 C 6,8 C 1,2 C 1,2 C 1,2 C 1,2 C 89 % 93 % 1020,7 hPa 0,0 l/m 1,0 km/h (0 Bft) N-NO 22 0 min -1,6 C 1,2 C 3,4 km/h (1 Bft)
05.03.2021 04:40 0,0 C 6,8 C 1,3 C 1,2 C 1,2 C 1,2 C 89 % 93 % 1020,7 hPa 0,0 l/m 1,3 km/h (1 Bft) NW 315 0 min -1,6 C 1,2 C 0,0 km/h (0 Bft)
05.03.2021 04:45 0,0 C 6,8 C 1,3 C 1,2 C 1,2 C 1,2 C 89 % 93 % 1020,7 hPa 0,0 l/m 1,4 km/h (1 Bft) NW 315 0 min -1,6 C 1,2 C 2,3 km/h (1 Bft)
05.03.2021 04:50 0,0 C 6,8 C 1,3 C 1,2 C 1,2 C 1,2 C 89 % 93 % 1020,6 hPa 0,0 l/m 1,6 km/h (1 Bft) NW 315 0 min -1,6 C 1,2 C 1,6 km/h (1 Bft)
05.03.2021 04:55 0,0 C 6,8 C 1,3 C 1,2 C 1,2 C 1,2 C 89 % 93 % 1020,6 hPa 0,0 l/m 1,8 km/h (1 Bft) W-NW 292 0 min -1,6 C 1,2 C 3,2 km/h (1 Bft)
05.03.2021 05:00 0,0 C 6,8 C 1,3 C 1,2 C 1,2 C 1,2 C 89 % 93 % 1020,6 hPa 0,0 l/m 1,8 km/h (1 Bft) S 180 0 min -1,6 C 1,2 C 4,5 km/h (1 Bft)
05.03.2021 05:05 0,0 C 6,8 C 1,3 C 1,2 C 1,2 C 1,2 C 89 % 93 % 1020,6 hPa 0,0 l/m 1,4 km/h (1 Bft) W-NW 292 0 min -1,6 C 1,2 C 0,0 km/h (0 Bft)
05.03.2021 05:10 0,0 C 6,8 C 1,3 C 1,2 C 1,2 C 1,2 C 89 % 93 % 1021,1 hPa 0,0 l/m 1,0 km/h (0 Bft) W-NW 292 0 min -1,6 C 1,2 C 3,1 km/h (1 Bft)
05.03.2021 05:15 0,0 C 6,8 C 1,3 C 1,2 C 1,2 C 1,2 C 89 % 93 % 1021,1 hPa 0,0 l/m 1,1 km/h (1 Bft) NW 315 0 min -1,6 C 1,2 C 0,0 km/h (0 Bft)
05.03.2021 05:20 0,0 C 6,8 C 1,2 C 1,2 C 1,2 C 1,2 C 89 % 93 % 1021,1 hPa 0,0 l/m 1,6 km/h (1 Bft) N 360 0 min -1,6 C 1,2 C 0,0 km/h (0 Bft)
05.03.2021 05:25 0,0 C 6,8 C 1,2 C 1,2 C 1,2 C 1,2 C 89 % 93 % 1021,1 hPa 0,0 l/m 1,4 km/h (1 Bft) NW 315 0 min -1,6 C 1,2 C 3,7 km/h (1 Bft)
05.03.2021 05:30 0,0 C 6,7 C 1,2 C 1,2 C 1,2 C 1,2 C 89 % 93 % 1021,4 hPa 0,0 l/m 2,1 km/h (1 Bft) N-NO 22 0 min -1,6 C 1,2 C 10,6 km/h (2 Bft)
05.03.2021 05:35 0,0 C 6,7 C 1,2 C 1,1 C 1,1 C 1,1 C 89 % 93 % 1021,4 hPa 0,0 l/m 2,6 km/h (1 Bft) N-NW 337 0 min -1,6 C 1,1 C 2,4 km/h (1 Bft)
05.03.2021 05:40 0,1 C 6,7 C 1,2 C 1,1 C 1,1 C 1,0 C 89 % 93 % 1021,4 hPa 0,0 l/m 1,6 km/h (1 Bft) W 270 0 min -1,5 C 1,1 C 2,4 km/h (1 Bft)
05.03.2021 05:45 -0,1 C 6,7 C 1,2 C 1,1 C 1,1 C 1,2 C 89 % 93 % 1021,4 hPa 0,0 l/m 1,1 km/h (1 Bft) NW 315 0 min -1,7 C 1,1 C 5,1 km/h (1 Bft)
05.03.2021 05:50 -0,1 C 6,7 C 1,1 C 1,0 C 1,0 C 1,1 C 89 % 93 % 1021,7 hPa 0,7 l/m 1,9 km/h (1 Bft) N-NO 22 0 min -1,7 C 1,0 C 2,4 km/h (1 Bft)
05.03.2021 05:55 -0,1 C 6,7 C 1,1 C 1,0 C 1,0 C 1,1 C 89 % 93 % 1021,7 hPa 0,0 l/m 2,4 km/h (1 Bft) N-NO 22 0 min -1,7 C 1,0 C 2,7 km/h (1 Bft)
05.03.2021 06:00 -0,1 C 6,7 C 1,0 C 0,9 C 0,9 C 1,0 C 89 % 93 % 1021,7 hPa 0,0 l/m 1,9 km/h (1 Bft) NW 315 0 min -1,7 C 0,9 C 6,4 km/h (2 Bft)
05.03.2021 06:05 -0,1 C 6,7 C 1,0 C 0,8 C 0,8 C 0,9 C 89 % 93 % 1021,7 hPa 0,0 l/m 1,8 km/h (1 Bft) N-NW 337 0 min -1,7 C 0,8 C 2,7 km/h (1 Bft)
05.03.2021 06:10 -0,1 C 6,7 C 1,0 C 0,8 C 0,8 C 0,9 C 89 % 93 % 1022,0 hPa 0,0 l/m 1,8 km/h (1 Bft) N-NW 337 0 min -1,7 C 0,8 C 2,7 km/h (1 Bft)
05.03.2021 06:15 -0,1 C 6,7 C 1,0 C 0,8 C 0,8 C 0,9 C 89 % 93 % 1022,0 hPa 0,0 l/m 1,8 km/h (1 Bft) N-NW 337 0 min -1,7 C 0,8 C 2,7 km/h (1 Bft)
05.03.2021 06:20 -0,3 C 6,7 C 0,9 C 0,6 C 0,6 C 0,9 C 89 % 93 % 1022,0 hPa 0,0 l/m 1,3 km/h (1 Bft) N-NW 337 0 min -1,9 C 0,6 C 1,6 km/h (1 Bft)
05.03.2021 06:25 -0,3 C 6,7 C 0,9 C 0,6 C 0,6 C 0,9 C 89 % 93 % 1022,0 hPa 0,0 l/m 1,1 km/h (1 Bft) N-NO 22 0 min -1,9 C 0,6 C 1,9 km/h (1 Bft)
05.03.2021 06:30 -0,4 C 6,7 C 0,9 C 0,6 C 0,6 C 1,0 C 89 % 93 % 1022,4 hPa 0,0 l/m 0,8 km/h (0 Bft) NW 315 0 min -2,0 C 0,6 C 0,0 km/h (0 Bft)
05.03.2021 06:35 -0,4 C 6,7 C 0,8 C 0,6 C 0,6 C 1,0 C 89 % 93 % 1022,4 hPa 0,0 l/m 1,0 km/h (0 Bft) N 360 0 min -2,0 C 0,6 C 2,1 km/h (1 Bft)
05.03.2021 06:40 -0,3 C 6,7 C 0,8 C 0,5 C 0,5 C 0,8 C 89 % 93 % 1022,4 hPa 0,0 l/m 1,4 km/h (1 Bft) NO 45 0 min -1,9 C 0,5 C 2,7 km/h (1 Bft)
05.03.2021 06:45 -0,3 C 6,7 C 0,7 C 0,5 C 0,5 C 0,8 C 89 % 93 % 1022,4 hPa 0,0 l/m 1,1 km/h (1 Bft) NO 45 0 min -1,9 C 0,5 C 1,6 km/h (1 Bft)
05.03.2021 06:50 -0,5 C 6,6 C 0,7 C 0,4 C 0,4 C 0,9 C 88 % 93 % 1022,2 hPa 0,0 l/m 1,1 km/h (1 Bft) N-NO 22 0 min -2,2 C 0,4 C 3,7 km/h (1 Bft)
05.03.2021 06:55 -0,5 C 6,6 C 0,7 C 0,4 C 0,4 C 0,9 C 88 % 93 % 1022,2 hPa 0,0 l/m 1,4 km/h (1 Bft) N-NW 337 0 min -2,2 C 0,4 C 2,9 km/h (1 Bft)
05.03.2021 07:00 -0,5 C 6,6 C 0,7 C 0,3 C 0,3 C 0,8 C 88 % 93 % 1022,2 hPa 0,0 l/m 2,1 km/h (1 Bft) N-NW 337 5 min -2,2 C 0,3 C 5,1 km/h (1 Bft)
05.03.2021 07:05 -0,5 C 6,6 C 0,6 C 0,1 C 0,1 C 0,6 C 88 % 93 % 1022,2 hPa 0,0 l/m 2,6 km/h (1 Bft) N-NO 22 5 min -2,2 C 0,1 C 2,6 km/h (1 Bft)
05.03.2021 07:10 -0,7 C 6,6 C 0,5 C 0,1 C 0,1 C 0,8 C 88 % 93 % 1022,7 hPa 0,0 l/m 2,4 km/h (1 Bft) NO 45 5 min -2,4 C 0,1 C 6,6 km/h (2 Bft)
05.03.2021 07:15 -0,7 C 6,6 C 0,5 C 0,1 C 0,1 C 0,8 C 88 % 93 % 1022,7 hPa 0,0 l/m 2,3 km/h (1 Bft) NO 45 5 min -2,4 C 0,1 C 2,1 km/h (1 Bft)
05.03.2021 07:20 -0,7 C 6,6 C 0,5 C 0,0 C 0,0 C 0,7 C 88 % 93 % 1022,7 hPa 0,0 l/m 1,8 km/h (1 Bft) NO 45 0 min -2,4 C 0,0 C 2,3 km/h (1 Bft)
05.03.2021 07:25 -0,7 C 6,6 C 0,5 C 0,0 C 0,0 C 0,7 C 88 % 93 % 1022,7 hPa 0,0 l/m 1,4 km/h (1 Bft) NO 45 0 min -2,4 C 0,0 C 3,4 km/h (1 Bft)
05.03.2021 07:30 -0,7 C 6,6 C 0,5 C 0,1 C 0,1 C 0,8 C 88 % 93 % 1023,1 hPa 0,0 l/m 1,8 km/h (1 Bft) N-NO 22 0 min -2,4 C 0,1 C 2,7 km/h (1 Bft)
05.03.2021 07:35 -0,7 C 6,5 C 0,6 C 0,1 C 0,1 C 0,8 C 88 % 93 % 1023,1 hPa 0,0 l/m 1,8 km/h (1 Bft) O-NO 67 0 min -2,4 C 0,1 C 3,2 km/h (1 Bft)
05.03.2021 07:40 -0,7 C 6,5 C 0,6 C 0,1 C 0,1 C 0,8 C 88 % 93 % 1023,1 hPa 0,0 l/m 1,9 km/h (1 Bft) NO 45 0 min -2,4 C 0,1 C 2,9 km/h (1 Bft)
05.03.2021 07:45 -0,8 C 6,5 C 0,6 C 0,1 C 0,1 C 0,9 C 88 % 93 % 1023,1 hPa 0,0 l/m 2,1 km/h (1 Bft) N-NW 337 0 min -2,5 C 0,1 C 3,1 km/h (1 Bft)
05.03.2021 07:50 -0,7 C 6,5 C 0,6 C 0,2 C 0,2 C 0,9 C 88 % 93 % 1023,8 hPa 0,0 l/m 1,3 km/h (1 Bft) N-NO 22 0 min -2,4 C 0,2 C 0,0 km/h (0 Bft)
05.03.2021 07:55 -0,7 C 6,5 C 0,7 C 0,3 C 0,3 C 1,0 C 88 % 93 % 1023,8 hPa 0,0 l/m 1,1 km/h (1 Bft) N-NW 337 0 min -2,4 C 0,3 C 3,2 km/h (1 Bft)
05.03.2021 08:00 -0,7 C 6,5 C 0,7 C 0,3 C 0,3 C 1,0 C 88 % 93 % 1023,8 hPa 0,0 l/m 1,6 km/h (1 Bft) W-NW 292 0 min -2,4 C 0,3 C 2,6 km/h (1 Bft)
05.03.2021 08:05 -0,7 C 6,5 C 0,7 C 0,4 C 0,4 C 1,1 C 88 % 93 % 1023,8 hPa 0,0 l/m 1,9 km/h (1 Bft) NW 315 0 min -2,4 C 0,4 C 3,9 km/h (1 Bft)
05.03.2021 08:10 -0,7 C 6,5 C 0,7 C 0,4 C 0,4 C 1,1 C 88 % 93 % 1023,9 hPa 0,0 l/m 1,6 km/h (1 Bft) N-NW 337 0 min -2,4 C 0,4 C 3,2 km/h (1 Bft)
05.03.2021 08:15 -0,8 C 6,5 C 0,6 C 0,4 C 0,4 C 1,2 C 88 % 93 % 1023,9 hPa 0,0 l/m 1,9 km/h (1 Bft) NO 45 0 min -2,5 C 0,4 C 2,7 km/h (1 Bft)
05.03.2021 08:20 -0,8 C 6,5 C 0,7 C 0,6 C 0,6 C 1,4 C 88 % 93 % 1023,9 hPa 0,0 l/m 1,8 km/h (1 Bft) NW 315 0 min -2,5 C 0,6 C 2,6 km/h (1 Bft)
05.03.2021 08:25 -0,8 C 6,4 C 0,7 C 0,7 C 0,7 C 1,5 C 88 % 93 % 1023,9 hPa 0,0 l/m 2,3 km/h (1 Bft) O 90 0 min -2,5 C 0,7 C 2,3 km/h (1 Bft)
05.03.2021 08:30 -0,8 C 6,4 C 0,5 C 0,4 C 0,4 C 1,2 C 88 % 93 % 1024,4 hPa 0,0 l/m 2,9 km/h (1 Bft) O-NO 67 0 min -2,5 C 0,4 C 14,0 km/h (3 Bft)
05.03.2021 08:35 -0,9 C 6,4 C 0,3 C -0,2 C -0,2 C 0,7 C 88 % 93 % 1024,4 hPa 0,0 l/m 3,2 km/h (1 Bft) NW 315 0 min -2,6 C -0,2 C 5,0 km/h (1 Bft)
05.03.2021 08:40 -0,9 C 6,4 C 0,3 C -0,3 C -0,3 C 0,6 C 88 % 93 % 1024,4 hPa 0,0 l/m 2,9 km/h (1 Bft) SW 225 0 min -2,6 C -0,3 C 1,8 km/h (1 Bft)
05.03.2021 08:45 -0,9 C 6,4 C 0,9 C 0,6 C 0,6 C 1,5 C 88 % 93 % 1024,4 hPa 0,0 l/m 1,8 km/h (1 Bft) N-NW 337 0 min -2,6 C 0,6 C 2,1 km/h (1 Bft)
05.03.2021 08:50 -0,9 C 6,2 C 1,1 C 1,7 C 1,7 C 2,6 C 88 % 93 % 1024,9 hPa 0,0 l/m 1,9 km/h (1 Bft) N-NW 337 0 min -2,6 C 1,7 C 4,5 km/h (1 Bft)
05.03.2021 08:55 -0,8 C 6,2 C 1,2 C 2,0 C 2,0 C 2,8 C 88 % 93 % 1024,9 hPa 0,0 l/m 2,6 km/h (1 Bft) NW 315 0 min -2,5 C 2,0 C 4,8 km/h (1 Bft)
05.03.2021 09:00 -0,8 C 6,2 C 1,4 C 1,4 C 1,4 C 2,2 C 88 % 93 % 1024,9 hPa 0,0 l/m 3,4 km/h (1 Bft) NO 45 0 min -2,5 C 1,4 C 3,4 km/h (1 Bft)
05.03.2021 09:05 -0,8 C 6,2 C 1,3 C 1,0 C 1,0 C 1,8 C 88 % 93 % 1024,9 hPa 0,0 l/m 3,1 km/h (1 Bft) NO 45 0 min -2,5 C 1,0 C 3,1 km/h (1 Bft)
05.03.2021 09:10 -0,7 C 6,2 C 1,9 C 2,5 C 2,5 C 3,2 C 88 % 93 % 1025,1 hPa 0,0 l/m 2,4 km/h (1 Bft) O 90 0 min -2,4 C 2,5 C 5,5 km/h (1 Bft)
05.03.2021 09:15 -0,5 C 6,2 C 1,7 C 2,3 C 2,3 C 2,8 C 88 % 93 % 1025,1 hPa 0,0 l/m 2,4 km/h (1 Bft) O-NO 67 0 min -2,2 C 2,3 C 6,9 km/h (2 Bft)
05.03.2021 09:20 -0,6 C 6,1 C 1,9 C 1,9 C 1,9 C 2,5 C 88 % 92 % 1025,1 hPa 0,0 l/m 2,9 km/h (1 Bft) O-NO 67 0 min -2,3 C 1,9 C 4,5 km/h (1 Bft)
05.03.2021 09:25 -0,5 C 6,1 C 2,1 C 2,1 C 2,1 C 2,6 C 88 % 92 % 1025,1 hPa 0,0 l/m 2,9 km/h (1 Bft) W 270 0 min -2,2 C 2,1 C 1,9 km/h (1 Bft)
05.03.2021 09:30 -0,3 C 6,1 C 2,5 C 2,2 C 2,2 C 2,5 C 89 % 92 % 1025,2 hPa 0,0 l/m 1,6 km/h (1 Bft) O-NO 67 0 min -1,9 C 2,2 C 4,8 km/h (1 Bft)
05.03.2021 09:35 -0,4 C 6,1 C 2,7 C 2,7 C 2,7 C 3,1 C 89 % 91 % 1025,2 hPa 0,0 l/m 1,4 km/h (1 Bft) NO 45 0 min -2,0 C 2,7 C 1,6 km/h (1 Bft)
05.03.2021 09:40 -0,3 C 6,1 C 2,8 C 3,4 C 3,4 C 3,7 C 89 % 90 % 1025,2 hPa 0,0 l/m 1,8 km/h (1 Bft) N-NW 337 5 min -1,9 C 3,4 C 0,0 km/h (0 Bft)
05.03.2021 09:45 -0,1 C 6,1 C 2,5 C 2,9 C 2,9 C 3,0 C 89 % 91 % 1025,2 hPa 0,0 l/m 1,1 km/h (1 Bft) W-NW 292 0 min -1,7 C 2,9 C 4,2 km/h (1 Bft)
05.03.2021 09:50 -0,1 C 6,0 C 1,9 C 2,9 C 2,9 C 3,0 C 89 % 91 % 1025,2 hPa 0,0 l/m 0,5 km/h (0 Bft) N-NW 337 0 min -1,7 C 2,9 C 4,3 km/h (1 Bft)
05.03.2021 09:55 0,1 C 6,0 C 1,7 C 2,9 C 2,9 C 2,8 C 89 % 90 % 1025,2 hPa 0,0 l/m 1,0 km/h (0 Bft) W 270 0 min -1,5 C 2,9 C 3,7 km/h (1 Bft)
05.03.2021 10:00 0,4 C 6,0 C 1,5 C 3,1 C 3,1 C 2,7 C 88 % 89 % 1025,2 hPa 0,0 l/m 2,6 km/h (1 Bft) O-NO 67 0 min -1,3 C 3,1 C 4,2 km/h (1 Bft)
05.03.2021 10:05 0,7 C 6,0 C 1,4 C 4,1 C 4,1 C 3,4 C 88 % 89 % 1025,2 hPa 0,0 l/m 3,1 km/h (1 Bft) O-NO 67 5 min -1,1 C 4,1 C 5,1 km/h (1 Bft)
05.03.2021 10:10 0,9 C 6,0 C 1,2 C 4,0 C 4,0 C 3,1 C 88 % 89 % 1025,9 hPa 0,0 l/m 2,9 km/h (1 Bft) NO 45 0 min -0,9 C 4,0 C 4,2 km/h (1 Bft)
05.03.2021 10:15 1,1 C 5,9 C 1,2 C 3,7 C 3,7 C 2,6 C 88 % 89 % 1025,9 hPa 0,0 l/m 2,9 km/h (1 Bft) N-NO 22 0 min -0,7 C 3,7 C 3,7 km/h (1 Bft)
05.03.2021 10:20 1,2 C 5,9 C 1,2 C 5,5 C 5,5 C 4,3 C 87 % 89 % 1025,9 hPa 0,0 l/m 1,6 km/h (1 Bft) NO 45 5 min -0,7 C 5,5 C 3,2 km/h (1 Bft)
05.03.2021 10:25 1,5 C 5,9 C 1,3 C 4,5 C 4,5 C 3,0 C 87 % 90 % 1025,9 hPa 0,0 l/m 0,8 km/h (0 Bft) NW 315 0 min -0,4 C 4,5 C 0,0 km/h (0 Bft)
05.03.2021 10:30 1,7 C 5,9 C 1,5 C 3,7 C 3,7 C 2,0 C 86 % 89 % 1026,1 hPa 0,0 l/m 1,6 km/h (1 Bft) SW 225 0 min -0,4 C 3,7 C 10,5 km/h (2 Bft)
05.03.2021 10:35 1,7 C 5,9 C 1,4 C 3,4 C 3,4 C 1,7 C 86 % 88 % 1026,1 hPa 0,0 l/m 1,8 km/h (1 Bft) N-NO 22 0 min -0,4 C 3,4 C 4,2 km/h (1 Bft)
05.03.2021 10:40 1,9 C 5,9 C 1,5 C 3,7 C 3,7 C 1,8 C 84 % 88 % 1026,1 hPa 0,0 l/m 1,9 km/h (1 Bft) N-NO 22 0 min -0,5 C 3,7 C 2,7 km/h (1 Bft)
05.03.2021 10:45 1,9 C 5,9 C 1,4 C 3,4 C 3,4 C 1,5 C 82 % 87 % 1026,1 hPa 0,0 l/m 2,1 km/h (1 Bft) NO 45 0 min -0,8 C 3,4 C 6,8 km/h (2 Bft)
05.03.2021 10:50 2,0 C 5,9 C 1,5 C 3,5 C 3,5 C 1,5 C 81 % 87 % 1026,2 hPa 0,0 l/m 1,8 km/h (1 Bft) NO 45 0 min -0,9 C 3,5 C 3,1 km/h (1 Bft)
05.03.2021 10:55 1,9 C 5,9 C 1,5 C 3,6 C 3,6 C 1,7 C 80 % 87 % 1026,2 hPa 0,0 l/m 1,3 km/h (1 Bft) O-NO 67 0 min -1,2 C 3,6 C 0,0 km/h (0 Bft)
05.03.2021 11:00 2,1 C 5,9 C 1,7 C 4,2 C 4,2 C 2,1 C 79 % 86 % 1026,2 hPa 0,0 l/m 1,4 km/h (1 Bft) N-NO 22 0 min -1,2 C 4,2 C 0,0 km/h (0 Bft)
05.03.2021 11:05 2,2 C 5,9 C 1,7 C 4,3 C 4,3 C 2,1 C 78 % 85 % 1026,2 hPa 0,0 l/m 2,1 km/h (1 Bft) N-NO 22 0 min -1,2 C 4,3 C 2,9 km/h (1 Bft)
05.03.2021 11:10 2,3 C 5,9 C 1,8 C 4,4 C 4,4 C 2,1 C 76 % 84 % 1026,1 hPa 0,0 l/m 2,7 km/h (1 Bft) O 90 0 min -1,5 C 4,4 C 3,5 km/h (1 Bft)
05.03.2021 11:15 2,4 C 5,7 C 2,0 C 5,5 C 5,5 C 3,1 C 76 % 86 % 1026,1 hPa 0,0 l/m 1,9 km/h (1 Bft) NW 315 0 min -1,4 C 5,5 C 4,8 km/h (1 Bft)
05.03.2021 11:20 2,4 C 5,7 C 2,1 C 6,5 C 6,5 C 4,1 C 74 % 84 % 1026,1 hPa 0,0 l/m 1,4 km/h (1 Bft) N 360 5 min -1,7 C 6,5 C 6,0 km/h (2 Bft)
05.03.2021 11:25 2,4 C 5,7 C 1,9 C 5,9 C 5,9 C 3,5 C 73 % 82 % 1026,1 hPa 0,0 l/m 2,3 km/h (1 Bft) N-NW 337 5 min -1,9 C 5,9 C 0,0 km/h (0 Bft)
05.03.2021 11:30 2,2 C 5,7 C 1,9 C 4,0 C 4,0 C 1,8 C 70 % 81 % 1026,9 hPa 0,0 l/m 4,5 km/h (1 Bft) O-NO 67 0 min -2,7 C 4,0 C 6,0 km/h (2 Bft)
05.03.2021 11:35 2,2 C 5,8 C 1,9 C 3,4 C 3,4 C 1,2 C 70 % 80 % 1026,9 hPa 0,0 l/m 4,8 km/h (1 Bft) NO 45 0 min -2,7 C 2,4 C 6,9 km/h (2 Bft)
05.03.2021 11:40 2,2 C 5,7 C 1,9 C 3,7 C 3,7 C 1,5 C 68 % 79 % 1026,9 hPa 0,0 l/m 5,1 km/h (1 Bft) O-NO 67 0 min -3,1 C 2,6 C 3,5 km/h (1 Bft)
05.03.2021 11:45 2,3 C 5,7 C 2,1 C 4,0 C 4,0 C 1,7 C 68 % 78 % 1026,9 hPa 0,0 l/m 4,5 km/h (1 Bft) NO 45 0 min -3,0 C 4,0 C 6,9 km/h (2 Bft)
05.03.2021 11:50 2,4 C 5,9 C 2,3 C 5,9 C 5,9 C 3,5 C 68 % 78 % 1027,1 hPa 0,0 l/m 3,9 km/h (1 Bft) NO 45 5 min -2,9 C 5,9 C 6,1 km/h (2 Bft)
05.03.2021 11:55 2,5 C 5,9 C 2,4 C 6,6 C 6,6 C 4,1 C 67 % 79 % 1027,1 hPa 0,0 l/m 3,7 km/h (1 Bft) NO 45 5 min -3,0 C 6,6 C 5,1 km/h (1 Bft)
05.03.2021 12:00 2,8 C 5,8 C 2,6 C 7,4 C 7,4 C 4,6 C 66 % 76 % 1027,1 hPa 0,0 l/m 4,2 km/h (1 Bft) NO 45 5 min -2,9 C 7,4 C 3,2 km/h (1 Bft)
05.03.2021 12:05 2,9 C 5,8 C 2,8 C 8,1 C 8,1 C 5,2 C 67 % 78 % 1027,1 hPa 0,0 l/m 3,4 km/h (1 Bft) O-NO 67 5 min -2,6 C 8,1 C 5,1 km/h (1 Bft)
05.03.2021 12:10 2,9 C 5,8 C 2,8 C 8,1 C 8,1 C 5,2 C 67 % 78 % 1027,6 hPa 0,0 l/m 3,4 km/h (1 Bft) NO 45 5 min -2,6 C 8,1 C 5,1 km/h (1 Bft)
05.03.2021 12:15 2,9 C 5,8 C 2,8 C 8,1 C 8,1 C 5,2 C 67 % 78 % 1027,6 hPa 0,0 l/m 3,4 km/h (1 Bft) NO 45 5 min -2,6 C 8,1 C 5,1 km/h (1 Bft)
05.03.2021 12:20 3,3 C 5,8 C 3,2 C 9,1 C 9,1 C 5,8 C 63 % 79 % 1027,6 hPa 0,0 l/m 2,1 km/h (1 Bft) SW 225 5 min -3,1 C 9,1 C 0,0 km/h (0 Bft)
05.03.2021 12:25 3,3 C 5,8 C 3,4 C 9,3 C 9,3 C 6,0 C 63 % 79 % 1027,6 hPa 0,0 l/m 1,3 km/h (1 Bft) NW 315 5 min -3,1 C 9,3 C 0,0 km/h (0 Bft)
05.03.2021 12:30 3,5 C 5,8 C 3,5 C 8,3 C 8,3 C 4,8 C 63 % 77 % 1027,2 hPa 0,0 l/m 0,6 km/h (0 Bft) NW 315 5 min -2,9 C 8,3 C 0,0 km/h (0 Bft)
05.03.2021 12:35 3,2 C 5,8 C 3,5 C 7,2 C 7,2 C 4,0 C 63 % 76 % 1027,2 hPa 0,0 l/m 0,5 km/h (0 Bft) S-SO 157 5 min -3,1 C 7,2 C 0,0 km/h (0 Bft)
05.03.2021 12:40 3,3 C 5,9 C 3,7 C 6,6 C 6,6 C 3,3 C 63 % 76 % 1027,2 hPa 0,0 l/m 0,5 km/h (0 Bft) O 90 5 min -3,1 C 6,6 C 0,0 km/h (0 Bft)
05.03.2021 12:45 3,3 C 5,9 C 3,8 C 6,5 C 6,5 C 3,2 C 63 % 76 % 1027,2 hPa 0,0 l/m 0,3 km/h (0 Bft) NO 45 0 min -3,1 C 6,5 C 0,0 km/h (0 Bft)
05.03.2021 12:50 3,3 C 5,9 C 3,8 C 6,7 C 6,7 C 3,4 C 62 % 74 % 1027,7 hPa 0,0 l/m 1,1 km/h (1 Bft) S 180 5 min -3,3 C 6,7 C 0,0 km/h (0 Bft)
05.03.2021 12:55 3,2 C 5,9 C 3,7 C 6,2 C 6,2 C 3,0 C 62 % 73 % 1027,7 hPa 0,0 l/m 1,3 km/h (1 Bft) O-NO 67 0 min -3,4 C 6,2 C 0,0 km/h (0 Bft)
05.03.2021 13:00 3,3 C 5,9 C 3,5 C 5,7 C 5,7 C 2,4 C 63 % 74 % 1027,7 hPa 0,0 l/m 0,5 km/h (0 Bft) N-NO 22 0 min -3,1 C 5,7 C 0,0 km/h (0 Bft)
05.03.2021 13:05 3,3 C 5,9 C 3,7 C 5,7 C 5,7 C 2,4 C 62 % 74 % 1027,7 hPa 0,0 l/m 0,5 km/h (0 Bft) W-NW 292 0 min -3,3 C 5,7 C 0,0 km/h (0 Bft)
05.03.2021 13:10 3,3 C 5,9 C 3,9 C 6,1 C 6,1 C 2,8 C 62 % 72 % 1027,6 hPa 0,0 l/m 1,3 km/h (1 Bft) N 360 0 min -3,3 C 6,1 C 5,1 km/h (1 Bft)
05.03.2021 13:15 3,2 C 5,8 C 3,9 C 6,2 C 6,2 C 3,0 C 61 % 70 % 1027,6 hPa 0,0 l/m 1,9 km/h (1 Bft) N-NW 337 0 min -3,6 C 6,2 C 5,5 km/h (1 Bft)
05.03.2021 13:20 3,2 C 5,9 C 3,4 C 5,8 C 5,8 C 2,6 C 61 % 69 % 1027,6 hPa 0,0 l/m 2,1 km/h (1 Bft) NW 315 0 min -3,6 C 5,8 C 1,9 km/h (1 Bft)
05.03.2021 13:25 3,1 C 5,9 C 3,2 C 5,2 C 5,2 C 2,1 C 61 % 69 % 1027,6 hPa 0,0 l/m 1,1 km/h (1 Bft) NW 315 0 min -3,7 C 5,2 C 0,0 km/h (0 Bft)
05.03.2021 13:30 3,3 C 5,9 C 3,5 C 7,1 C 7,1 C 3,8 C 61 % 70 % 1028,1 hPa 0,0 l/m 0,6 km/h (0 Bft) NO 45 5 min -3,5 C 7,1 C 0,0 km/h (0 Bft)
05.03.2021 13:35 3,5 C 5,9 C 3,9 C 8,8 C 8,8 C 5,3 C 61 % 66 % 1028,1 hPa 0,0 l/m 0,6 km/h (0 Bft) NW 315 5 min -3,3 C 8,8 C 0,0 km/h (0 Bft)
05.03.2021 13:40 3,7 C 5,9 C 4,3 C 10,5 C 10,5 C 6,8 C 60 % 67 % 1028,1 hPa 0,0 l/m 0,8 km/h (0 Bft) NW 315 5 min -3,3 C 10,5 C 2,9 km/h (1 Bft)
05.03.2021 13:45 4,0 C 5,8 C 4,5 C 11,4 C 11,4 C 7,4 C 60 % 63 % 1028,1 hPa 0,0 l/m 1,4 km/h (1 Bft) O-NO 67 5 min -3,0 C 11,4 C 5,5 km/h (1 Bft)
05.03.2021 13:50 4,0 C 5,8 C 4,2 C 10,2 C 10,2 C 6,2 C 58 % 62 % 1027,6 hPa 0,0 l/m 1,6 km/h (1 Bft) N-NO 22 5 min -3,5 C 10,2 C 0,0 km/h (0 Bft)
05.03.2021 13:55 3,9 C 5,8 C 3,9 C 8,5 C 8,5 C 4,6 C 57 % 62 % 1027,6 hPa 0,0 l/m 1,4 km/h (1 Bft) N-NW 337 5 min -3,8 C 8,5 C 1,6 km/h (1 Bft)
05.03.2021 14:00 3,6 C 5,7 C 3,5 C 6,4 C 6,4 C 2,8 C 57 % 62 % 1027,6 hPa 0,0 l/m 0,6 km/h (0 Bft) O-NO 67 0 min -4,1 C 6,4 C 0,0 km/h (0 Bft)
05.03.2021 14:05 3,5 C 5,8 C 3,6 C 6,0 C 6,0 C 2,5 C 58 % 62 % 1027,6 hPa 0,0 l/m 0,5 km/h (0 Bft) O 90 0 min -4,0 C 6,0 C 0,0 km/h (0 Bft)
05.03.2021 14:10 3,7 C 5,8 C 3,7 C 7,2 C 7,2 C 3,5 C 58 % 59 % 1028,1 hPa 0,0 l/m 1,4 km/h (1 Bft) N-NW 337 5 min -3,8 C 7,2 C 2,6 km/h (1 Bft)
05.03.2021 14:15 3,7 C 5,7 C 3,8 C 6,6 C 6,6 C 2,9 C 58 % 61 % 1028,1 hPa 0,0 l/m 1,3 km/h (1 Bft) N-NO 22 0 min -3,8 C 6,6 C 0,0 km/h (0 Bft)
05.03.2021 14:20 3,7 C 5,7 C 3,9 C 5,9 C 5,9 C 2,2 C 58 % 60 % 1028,1 hPa 0,0 l/m 1,0 km/h (0 Bft) NW 315 0 min -3,8 C 5,9 C 0,0 km/h (0 Bft)
05.03.2021 14:25 3,7 C 5,8 C 4,1 C 6,6 C 6,6 C 2,9 C 58 % 62 % 1028,1 hPa 0,0 l/m 0,5 km/h (0 Bft) NO 45 0 min -3,8 C 6,6 C 0,0 km/h (0 Bft)
05.03.2021 14:30 3,9 C 5,7 C 3,7 C 7,2 C 7,2 C 3,3 C 55 % 58 % 1028,2 hPa 0,0 l/m 1,1 km/h (1 Bft) O-SO 112 5 min -4,3 C 7,2 C 3,7 km/h (1 Bft)
05.03.2021 14:35 3,7 C 5,7 C 3,7 C 6,8 C 6,8 C 3,1 C 55 % 59 % 1028,2 hPa 0,0 l/m 1,4 km/h (1 Bft) W-NW 292 0 min -4,5 C 6,8 C 0,0 km/h (0 Bft)
05.03.2021 14:40 3,9 C 5,7 C 3,9 C 8,3 C 8,3 C 4,4 C 55 % 56 % 1028,2 hPa 0,0 l/m 0,6 km/h (0 Bft) O-NO 67 5 min -4,3 C 8,3 C 0,0 km/h (0 Bft)
05.03.2021 14:45 3,9 C 5,7 C 3,9 C 7,6 C 7,6 C 3,7 C 54 % 57 % 1028,2 hPa 0,0 l/m 0,3 km/h (0 Bft) NW 315 5 min -4,5 C 7,6 C 4,0 km/h (1 Bft)
05.03.2021 14:50 4,3 C 5,6 C 4,6 C 9,4 C 9,4 C 5,1 C 55 % 59 % 1028,4 hPa 0,0 l/m 0,6 km/h (0 Bft) O-NO 67 5 min -3,9 C 9,4 C 0,0 km/h (0 Bft)
05.03.2021 14:55 4,5 C 5,7 C 4,5 C 9,8 C 9,8 C 5,3 C 55 % 57 % 1028,4 hPa 0,0 l/m 1,3 km/h (1 Bft) N 360 5 min -3,7 C 9,8 C 0,0 km/h (0 Bft)
05.03.2021 15:00 4,3 C 5,6 C 4,3 C 7,8 C 7,8 C 3,5 C 54 % 58 % 1028,4 hPa 0,0 l/m 1,3 km/h (1 Bft) SW 225 5 min -4,2 C 7,8 C 4,3 km/h (1 Bft)
05.03.2021 15:05 4,2 C 5,6 C 4,0 C 6,9 C 6,9 C 2,7 C 54 % 57 % 1028,4 hPa 0,0 l/m 0,6 km/h (0 Bft) NW 315 0 min -4,3 C 6,9 C 0,0 km/h (0 Bft)
05.03.2021 15:10 4,0 C 5,6 C 4,1 C 7,1 C 7,1 C 3,1 C 54 % 57 % 1028,2 hPa 0,0 l/m 0,8 km/h (0 Bft) O-NO 67 0 min -4,4 C 7,1 C 0,0 km/h (0 Bft)
05.03.2021 15:15 4,3 C 5,6 C 4,3 C 8,8 C 8,8 C 4,5 C 55 % 58 % 1028,2 hPa 0,0 l/m 0,3 km/h (0 Bft) NW 315 5 min -3,9 C 8,8 C 2,1 km/h (1 Bft)
05.03.2021 15:20 4,2 C 5,6 C 4,2 C 8,1 C 8,1 C 3,9 C 54 % 57 % 1028,2 hPa 0,0 l/m 0,6 km/h (0 Bft) NW 315 5 min -4,3 C 8,1 C 0,0 km/h (0 Bft)
05.03.2021 15:25 4,3 C 5,6 C 4,2 C 7,1 C 7,1 C 2,8 C 54 % 57 % 1028,2 hPa 0,0 l/m 0,8 km/h (0 Bft) N-NW 337 0 min -4,2 C 7,1 C 3,4 km/h (1 Bft)
05.03.2021 15:30 4,3 C 5,6 C 4,4 C 7,1 C 7,1 C 2,8 C 54 % 57 % 1028,6 hPa 0,0 l/m 0,2 km/h (0 Bft) W-NW 292 0 min -4,2 C 7,1 C 0,0 km/h (0 Bft)
05.03.2021 15:35 4,2 C 5,6 C 4,4 C 6,9 C 6,9 C 2,7 C 53 % 56 % 1028,6 hPa 0,0 l/m 0,3 km/h (0 Bft) NW 315 0 min -4,5 C 6,9 C 3,4 km/h (1 Bft)
05.03.2021 15:40 4,4 C 5,6 C 4,6 C 7,7 C 7,7 C 3,3 C 54 % 58 % 1028,6 hPa 0,0 l/m 0,3 km/h (0 Bft) W-SW 247 5 min -4,1 C 7,7 C 0,0 km/h (0 Bft)
05.03.2021 15:45 4,7 C 5,6 C 4,8 C 8,5 C 8,5 C 3,8 C 55 % 59 % 1028,6 hPa 0,0 l/m 0,2 km/h (0 Bft) W-NW 292 5 min -3,6 C 8,5 C 0,0 km/h (0 Bft)
05.03.2021 15:50 5,1 C 5,6 C 5,1 C 9,8 C 9,8 C 4,7 C 55 % 58 % 1028,8 hPa 0,0 l/m 1,0 km/h (0 Bft) S-SW 202 5 min -3,2 C 9,8 C 0,0 km/h (0 Bft)
05.03.2021 15:55 5,1 C 5,6 C 4,9 C 10,0 C 10,0 C 4,9 C 55 % 60 % 1028,8 hPa 0,0 l/m 1,0 km/h (0 Bft) S 180 5 min -3,2 C 10,0 C 0,0 km/h (0 Bft)
05.03.2021 16:00 5,1 C 5,6 C 4,5 C 8,7 C 8,7 C 3,6 C 55 % 59 % 1028,8 hPa 0,0 l/m 0,0 km/h (0 Bft) N-NW 337 5 min -3,2 C 8,7 C 0,0 km/h (0 Bft)
05.03.2021 16:05 4,8 C 5,6 C 4,2 C 7,6 C 7,6 C 2,8 C 54 % 58 % 1028,8 hPa 0,0 l/m 0,5 km/h (0 Bft) NW 315 5 min -3,7 C 7,6 C 8,5 km/h (2 Bft)
05.03.2021 16:10 4,3 C 5,6 C 3,8 C 5,9 C 5,9 C 1,6 C 54 % 57 % 1028,9 hPa 0,0 l/m 0,8 km/h (0 Bft) N 360 0 min -4,2 C 5,9 C 0,0 km/h (0 Bft)
05.03.2021 16:15 4,1 C 5,6 C 3,6 C 5,5 C 5,5 C 1,4 C 54 % 58 % 1028,9 hPa 0,0 l/m 0,6 km/h (0 Bft) W-NW 292 0 min -4,4 C 5,5 C 0,0 km/h (0 Bft)
05.03.2021 16:20 4,1 C 5,6 C 3,8 C 5,7 C 5,7 C 1,6 C 55 % 59 % 1028,9 hPa 0,0 l/m 0,3 km/h (0 Bft) N-NW 337 0 min -4,1 C 5,7 C 0,0 km/h (0 Bft)
05.03.2021 16:25 4,2 C 5,6 C 4,0 C 6,3 C 6,3 C 2,1 C 55 % 59 % 1028,9 hPa 0,0 l/m 0,3 km/h (0 Bft) NW 315 0 min -4,0 C 6,3 C 0,0 km/h (0 Bft)
05.03.2021 16:30 4,5 C 5,6 C 4,1 C 7,1 C 7,1 C 2,6 C 55 % 59 % 1028,9 hPa 0,0 l/m 0,0 km/h (0 Bft) NW 315 5 min -3,7 C 7,1 C 0,0 km/h (0 Bft)
05.03.2021 16:35 4,5 C 5,6 C 4,2 C 7,6 C 7,6 C 3,1 C 55 % 57 % 1028,9 hPa 0,0 l/m 0,2 km/h (0 Bft) N-NW 337 5 min -3,7 C 7,6 C 0,0 km/h (0 Bft)
05.03.2021 16:40 4,6 C 5,6 C 4,2 C 7,7 C 7,7 C 3,1 C 55 % 58 % 1028,9 hPa 0,0 l/m 0,2 km/h (0 Bft) NW 315 5 min -3,6 C 7,7 C 2,7 km/h (1 Bft)
05.03.2021 16:45 4,7 C 5,6 C 4,3 C 7,7 C 7,7 C 3,0 C 55 % 58 % 1028,9 hPa 0,0 l/m 0,2 km/h (0 Bft) W-NW 292 5 min -3,6 C 7,7 C 0,0 km/h (0 Bft)
05.03.2021 16:50 4,7 C 5,6 C 4,2 C 7,5 C 7,5 C 2,8 C 54 % 57 % 1029,1 hPa 0,0 l/m 0,2 km/h (0 Bft) N 360 5 min -3,8 C 7,5 C 0,0 km/h (0 Bft)
05.03.2021 16:55 4,4 C 5,6 C 4,1 C 7,3 C 7,3 C 2,9 C 54 % 57 % 1029,1 hPa 0,0 l/m 0,5 km/h (0 Bft) O-NO 67 5 min -4,1 C 7,3 C 0,0 km/h (0 Bft)
05.03.2021 17:00 4,3 C 5,6 C 3,9 C 6,6 C 6,6 C 2,3 C 54 % 58 % 1029,1 hPa 0,0 l/m 0,6 km/h (0 Bft) NO 45 5 min -4,2 C 6,6 C 0,0 km/h (0 Bft)
05.03.2021 17:05 4,3 C 5,6 C 3,6 C 6,1 C 6,1 C 1,8 C 55 % 58 % 1029,1 hPa 0,0 l/m 0,6 km/h (0 Bft) NW 315 5 min -3,9 C 6,1 C 4,7 km/h (1 Bft)
05.03.2021 17:10 4,0 C 5,5 C 3,2 C 4,8 C 4,8 C 0,8 C 54 % 58 % 1029,1 hPa 0,0 l/m 0,3 km/h (0 Bft) NW 315 0 min -4,4 C 4,8 C 0,0 km/h (0 Bft)
05.03.2021 17:15 3,9 C 5,5 C 3,0 C 3,9 C 3,9 C 0,0 C 54 % 58 % 1029,1 hPa 0,0 l/m 0,3 km/h (0 Bft) NW 315 0 min -4,5 C 3,9 C 1,9 km/h (1 Bft)
05.03.2021 17:20 3,7 C 5,5 C 2,9 C 4,1 C 4,1 C 0,4 C 54 % 59 % 1029,1 hPa 0,0 l/m 0,2 km/h (0 Bft) NW 315 0 min -4,7 C 4,1 C 0,0 km/h (0 Bft)
05.03.2021 17:25 3,7 C 5,5 C 2,9 C 4,3 C 4,3 C 0,6 C 55 % 59 % 1029,1 hPa 0,0 l/m 0,2 km/h (0 Bft) NW 315 0 min -4,5 C 4,3 C 0,0 km/h (0 Bft)
05.03.2021 17:30 3,6 C 5,5 C 2,7 C 4,1 C 4,1 C 0,5 C 55 % 60 % 1029,1 hPa 0,0 l/m 0,0 km/h (0 Bft) N-NO 22 0 min -4,6 C 4,1 C 0,0 km/h (0 Bft)
05.03.2021 17:35 3,5 C 5,5 C 2,7 C 3,9 C 3,9 C 0,4 C 55 % 60 % 1029,1 hPa 0,0 l/m 0,2 km/h (0 Bft) W 270 0 min -4,7 C 3,9 C 0,0 km/h (0 Bft)
05.03.2021 17:40 3,3 C 5,5 C 2,5 C 3,4 C 3,4 C 0,1 C 55 % 60 % 1029,1 hPa 0,0 l/m 0,2 km/h (0 Bft) NO 45 0 min -4,9 C 3,4 C 0,0 km/h (0 Bft)
05.03.2021 17:45 3,2 C 5,5 C 2,3 C 3,1 C 3,0 C 0,0 C 55 % 60 % 1029,1 hPa 0,0 l/m 0,0 km/h (0 Bft) W-SW 247 0 min -5,0 C 3,0 C 0,0 km/h (0 Bft)
05.03.2021 17:50 3,1 C 5,5 C 2,1 C 2,8 C 2,3 C 0,0 C 55 % 61 % 1030,0 hPa 0,0 l/m 0,0 km/h (0 Bft) W 270 0 min -5,0 C 2,3 C 0,0 km/h (0 Bft)
05.03.2021 17:55 2,9 C 5,5 C 1,9 C 2,6 C 1,9 C 0,0 C 56 % 61 % 1030,0 hPa 0,0 l/m 0,0 km/h (0 Bft) W 270 0 min -5,0 C 1,9 C 0,0 km/h (0 Bft)
05.03.2021 18:00 2,8 C 5,6 C 1,7 C 2,3 C 1,3 C 0,0 C 56 % 61 % 1030,0 hPa 0,0 l/m 0,0 km/h (0 Bft) NW 315 0 min -5,1 C 1,3 C 0,0 km/h (0 Bft)
05.03.2021 18:05 2,6 C 5,6 C 1,5 C 2,1 C 1,1 C 0,0 C 56 % 61 % 1030,0 hPa 0,0 l/m 0,2 km/h (0 Bft) W 270 0 min -5,3 C 1,1 C 0,0 km/h (0 Bft)
05.03.2021 18:10 2,5 C 5,6 C 1,4 C 1,9 C 0,8 C 0,0 C 56 % 62 % 1030,0 hPa 0,0 l/m 0,2 km/h (0 Bft) NW 315 0 min -5,4 C 0,8 C 0,0 km/h (0 Bft)
05.03.2021 18:15 2,4 C 5,6 C 1,3 C 1,8 C 0,6 C 0,0 C 56 % 62 % 1030,0 hPa 0,0 l/m 0,0 km/h (0 Bft) W 270 0 min -5,5 C 0,6 C 0,0 km/h (0 Bft)
05.03.2021 18:20 2,3 C 5,6 C 1,1 C 1,6 C 0,2 C 0,0 C 57 % 63 % 1030,0 hPa 0,0 l/m 0,0 km/h (0 Bft) NW 315 0 min -5,3 C 0,2 C 0,0 km/h (0 Bft)
05.03.2021 18:25 2,1 C 5,6 C 1,0 C 1,4 C 0,1 C 0,0 C 57 % 63 % 1030,0 hPa 0,0 l/m 0,0 km/h (0 Bft) W 270 0 min -5,5 C 0,1 C 0,0 km/h (0 Bft)
05.03.2021 18:30 1,9 C 5,6 C 0,8 C 1,1 C -0,4 C 0,0 C 57 % 64 % 1030,4 hPa 0,0 l/m 0,0 km/h (0 Bft) W-NW 292 0 min -5,7 C -0,4 C 0,0 km/h (0 Bft)
05.03.2021 18:35 1,9 C 5,6 C 0,7 C 1,1 C -0,5 C 0,0 C 58 % 65 % 1030,4 hPa 0,0 l/m 0,0 km/h (0 Bft) NW 315 0 min -5,5 C -0,5 C 0,0 km/h (0 Bft)
05.03.2021 18:40 1,7 C 5,6 C 0,3 C 0,9 C -0,8 C 0,0 C 59 % 66 % 1030,4 hPa 0,0 l/m 0,0 km/h (0 Bft) N-NW 337 0 min -5,4 C -0,8 C 0,0 km/h (0 Bft)
05.03.2021 18:45 1,5 C 5,6 C 0,3 C 0,7 C -0,8 C 0,0 C 59 % 67 % 1030,4 hPa 0,0 l/m 0,0 km/h (0 Bft) W 270 0 min -5,6 C -0,8 C 0,0 km/h (0 Bft)
05.03.2021 18:50 1,3 C 5,6 C -0,1 C 0,5 C -1,0 C 0,0 C 60 % 68 % 1030,8 hPa 0,0 l/m 0,0 km/h (0 Bft) W 270 0 min -5,6 C -1,0 C 0,0 km/h (0 Bft)
05.03.2021 18:55 1,2 C 5,6 C -0,3 C 0,4 C -1,3 C 0,0 C 60 % 69 % 1030,8 hPa 0,0 l/m 0,0 km/h (0 Bft) W 270 0 min -5,7 C -1,3 C 0,0 km/h (0 Bft)
05.03.2021 19:00 0,9 C 5,6 C -0,5 C 0,0 C -1,8 C 0,0 C 61 % 69 % 1030,8 hPa 0,0 l/m 0,0 km/h (0 Bft) W 270 0 min -5,8 C -1,8 C 0,0 km/h (0 Bft)
05.03.2021 19:05 0,8 C 5,6 C -0,6 C -0,2 C -2,1 C 0,0 C 61 % 70 % 1030,8 hPa 0,0 l/m 0,0 km/h (0 Bft) W 270 0 min -5,8 C -2,1 C 0,0 km/h (0 Bft)
05.03.2021 19:10 0,5 C 5,6 C -0,9 C -0,5 C -2,4 C 0,0 C 62 % 71 % 1031,1 hPa 0,0 l/m 0,0 km/h (0 Bft) W 270 0 min -5,9 C -2,4 C 0,0 km/h (0 Bft)
05.03.2021 19:15 0,4 C 5,6 C -1,1 C -0,6 C -2,6 C 0,0 C 62 % 72 % 1031,1 hPa 0,0 l/m 0,0 km/h (0 Bft) W 270 0 min -6,0 C -2,6 C 0,0 km/h (0 Bft)
05.03.2021 19:20 0,1 C 5,6 C -1,2 C -0,9 C -2,8 C 0,0 C 63 % 73 % 1031,1 hPa 0,0 l/m 0,0 km/h (0 Bft) W 270 0 min -6,1 C -2,8 C 0,0 km/h (0 Bft)
05.03.2021 19:25 -0,1 C 5,6 C -1,3 C -1,0 C -2,8 C 0,0 C 64 % 74 % 1031,1 hPa 0,0 l/m 0,0 km/h (0 Bft) W 270 0 min -6,1 C -2,8 C 0,0 km/h (0 Bft)
05.03.2021 19:30 -0,3 C 5,5 C -1,5 C -1,2 C -3,1 C 0,0 C 65 % 74 % 1031,4 hPa 0,0 l/m 0,0 km/h (0 Bft) W 270 0 min -6,1 C -3,1 C 0,0 km/h (0 Bft)
05.03.2021 19:35 -0,5 C 5,5 C -1,6 C -1,4 C -3,3 C 0,0 C 65 % 75 % 1031,4 hPa 0,0 l/m 0,0 km/h (0 Bft) W 270 0 min -6,3 C -3,3 C 0,0 km/h (0 Bft)
05.03.2021 19:40 -0,5 C 5,5 C -1,7 C -1,4 C -3,3 C 0,0 C 66 % 76 % 1031,4 hPa 0,0 l/m 0,0 km/h (0 Bft) W 270 0 min -6,1 C -3,3 C 0,0 km/h (0 Bft)
05.03.2021 19:45 -0,7 C 5,5 C -1,7 C -1,6 C -3,3 C 0,0 C 67 % 76 % 1031,4 hPa 0,0 l/m 0,0 km/h (0 Bft) W 270 0 min -6,0 C -3,3 C 0,0 km/h (0 Bft)
05.03.2021 19:50 -0,8 C 5,5 C -1,8 C -1,6 C -3,1 C 0,0 C 69 % 77 % 1029,9 hPa 0,0 l/m 0,0 km/h (0 Bft) W 270 0 min -5,8 C -3,1 C 0,0 km/h (0 Bft)
05.03.2021 19:55 -0,9 C 5,5 C -1,9 C -1,6 C -3,1 C 0,0 C 69 % 77 % 1029,9 hPa 0,0 l/m 0,0 km/h (0 Bft) W 270 0 min -5,9 C -3,1 C 0,0 km/h (0 Bft)
05.03.2021 20:00 -0,9 C 5,5 C -2,0 C -1,8 C -3,5 C 0,0 C 70 % 78 % 1029,9 hPa 0,0 l/m 0,0 km/h (0 Bft) W 270 0 min -5,7 C -3,5 C 0,0 km/h (0 Bft)
05.03.2021 20:05 -1,1 C 5,5 C -2,1 C -2,0 C -3,7 C 0,0 C 70 % 79 % 1029,9 hPa 0,0 l/m 0,0 km/h (0 Bft) W 270 0 min -5,9 C -3,7 C 0,0 km/h (0 Bft)
05.03.2021 20:10 -1,3 C 5,5 C -2,1 C -2,0 C -3,5 C 0,0 C 71 % 79 % 1032,2 hPa 0,0 l/m 0,0 km/h (0 Bft) W 270 0 min -5,9 C -3,5 C 0,0 km/h (0 Bft)
05.03.2021 20:15 -1,3 C 5,5 C -2,1 C -2,0 C -3,5 C 0,0 C 71 % 80 % 1032,2 hPa 0,0 l/m 0,0 km/h (0 Bft) W 270 0 min -5,9 C -3,5 C 0,0 km/h (0 Bft)
05.03.2021 20:20 -1,3 C 5,5 C -2,3 C -2,1 C -3,6 C 0,0 C 72 % 80 % 1032,2 hPa 0,0 l/m 0,0 km/h (0 Bft) W 270 0 min -5,7 C -3,6 C 0,0 km/h (0 Bft)
05.03.2021 20:25 -1,5 C 5,5 C -2,4 C -2,2 C -3,7 C 0,0 C 72 % 80 % 1032,2 hPa 0,0 l/m 0,0 km/h (0 Bft) W 270 0 min -5,9 C -3,7 C 0,0 km/h (0 Bft)
05.03.2021 20:30 -1,7 C 5,5 C -2,5 C -2,4 C -3,9 C 0,0 C 72 % 81 % 1032,3 hPa 0,0 l/m 0,0 km/h (0 Bft) W 270 0 min -6,1 C -3,9 C 0,0 km/h (0 Bft)
05.03.2021 20:35 -1,7 C 5,5 C -2,5 C -2,5 C -4,0 C 0,0 C 73 % 81 % 1032,3 hPa 0,0 l/m 0,0 km/h (0 Bft) W 270 0 min -5,9 C -4,0 C 0,0 km/h (0 Bft)
05.03.2021 20:40 -1,7 C 5,5 C -2,6 C -2,6 C -4,3 C 0,0 C 73 % 81 % 1032,3 hPa 0,0 l/m 0,0 km/h (0 Bft) W 270 0 min -5,9 C -4,3 C 0,0 km/h (0 Bft)
05.03.2021 20:45 -1,9 C 5,5 C -2,6 C -2,7 C -4,4 C 0,0 C 74 % 81 % 1032,3 hPa 0,0 l/m 0,0 km/h (0 Bft) W 270 0 min -5,9 C -4,4 C 0,0 km/h (0 Bft)
05.03.2021 20:50 -2,1 C 5,5 C -2,7 C -2,9 C -4,5 C 0,0 C 74 % 82 % 1032,4 hPa 0,0 l/m 0,0 km/h (0 Bft) W 270 0 min -6,1 C -4,5 C 0,0 km/h (0 Bft)
05.03.2021 20:55 -2,1 C 5,5 C -2,7 C -2,9 C -4,6 C 0,0 C 74 % 82 % 1032,4 hPa 0,0 l/m 0,0 km/h (0 Bft) W 270 0 min -6,1 C -4,6 C 0,0 km/h (0 Bft)
05.03.2021 21:00 -2,3 C 5,4 C -2,8 C -3,1 C -4,8 C 0,0 C 74 % 82 % 1032,4 hPa 0,0 l/m 0,0 km/h (0 Bft) W 270 0 min -6,3 C -4,8 C 0,0 km/h (0 Bft)
05.03.2021 21:05 -2,3 C 5,5 C -2,9 C -3,1 C -4,7 C 0,0 C 75 % 82 % 1032,4 hPa 0,0 l/m 0,0 km/h (0 Bft) W 270 0 min -6,1 C -4,7 C 0,0 km/h (0 Bft)
05.03.2021 21:10 -2,4 C 5,4 C -2,9 C -3,2 C -4,8 C 0,0 C 75 % 83 % 1032,6 hPa 0,0 l/m 0,0 km/h (0 Bft) W 270 0 min -6,2 C -4,8 C 0,0 km/h (0 Bft)
05.03.2021 21:15 -2,4 C 5,4 C -3,0 C -3,2 C -4,8 C 0,0 C 76 % 83 % 1032,6 hPa 0,0 l/m 0,0 km/h (0 Bft) W 270 0 min -6,0 C -4,8 C 0,0 km/h (0 Bft)
05.03.2021 21:20 -2,5 C 5,4 C -3,1 C -3,3 C -4,8 C 0,0 C 76 % 83 % 1032,6 hPa 0,0 l/m 0,0 km/h (0 Bft) W 270 0 min -6,1 C -4,8 C 0,0 km/h (0 Bft)
05.03.2021 21:25 -2,5 C 5,4 C -3,1 C -3,2 C -4,7 C 0,0 C 77 % 84 % 1032,6 hPa 0,0 l/m 0,0 km/h (0 Bft) W 270 0 min -6,0 C -4,7 C 0,0 km/h (0 Bft)
05.03.2021 21:30 -2,5 C 5,4 C -3,0 C -3,2 C -4,5 C 0,0 C 77 % 84 % 1032,9 hPa 0,0 l/m 0,0 km/h (0 Bft) W 270 0 min -6,0 C -4,5 C 0,0 km/h (0 Bft)
05.03.2021 21:35 -2,5 C 5,4 C -3,0 C -3,1 C -4,4 C 0,0 C 77 % 84 % 1032,9 hPa 0,0 l/m 0,0 km/h (0 Bft) W 270 0 min -6,0 C -4,4 C 0,0 km/h (0 Bft)
05.03.2021 21:40 -2,5 C 5,4 C -3,2 C -3,1 C -4,4 C 0,0 C 78 % 84 % 1032,9 hPa 0,0 l/m 0,0 km/h (0 Bft) W 270 0 min -5,8 C -4,4 C 0,0 km/h (0 Bft)
05.03.2021 21:45 -2,5 C 5,4 C -3,2 C -3,1 C -4,4 C 0,0 C 78 % 85 % 1032,9 hPa 0,0 l/m 0,0 km/h (0 Bft) W 270 0 min -5,8 C -4,4 C 0,0 km/h (0 Bft)
05.03.2021 21:50 -2,5 C 5,4 C -3,2 C -3,1 C -4,4 C 0,0 C 79 % 85 % 1032,8 hPa 0,0 l/m 0,0 km/h (0 Bft) W 270 0 min -5,6 C -4,4 C 0,0 km/h (0 Bft)
05.03.2021 21:55 -2,5 C 5,4 C -3,3 C -3,2 C -4,7 C 0,0 C 79 % 85 % 1032,8 hPa 0,0 l/m 0,0 km/h (0 Bft) W 270 0 min -5,6 C -4,7 C 0,0 km/h (0 Bft)
05.03.2021 22:00 -2,7 C 5,4 C -3,3 C -3,4 C -4,9 C 0,0 C 79 % 85 % 1032,8 hPa 0,0 l/m 0,0 km/h (0 Bft) W 270 0 min -5,8 C -4,9 C 0,0 km/h (0 Bft)
05.03.2021 22:05 -2,7 C 5,4 C -3,3 C -3,5 C -5,1 C 0,0 C 79 % 85 % 1032,8 hPa 0,0 l/m 0,0 km/h (0 Bft) W 270 0 min -5,8 C -5,1 C 0,0 km/h (0 Bft)
05.03.2021 22:10 -2,9 C 5,4 C -3,4 C -3,7 C -5,3 C 0,0 C 79 % 85 % 1033,1 hPa 0,0 l/m 0,0 km/h (0 Bft) W 270 0 min -6,0 C -5,3 C 0,0 km/h (0 Bft)
05.03.2021 22:15 -2,9 C 5,4 C -3,5 C -3,7 C -5,4 C 0,0 C 79 % 85 % 1033,1 hPa 0,0 l/m 0,0 km/h (0 Bft) W 270 0 min -6,0 C -5,4 C 0,0 km/h (0 Bft)
05.03.2021 22:20 -2,9 C 5,4 C -3,6 C -3,8 C -5,5 C 0,0 C 79 % 86 % 1033,1 hPa 0,0 l/m 0,0 km/h (0 Bft) W 270 0 min -6,0 C -5,5 C 0,0 km/h (0 Bft)
05.03.2021 22:25 -3,1 C 5,4 C -3,6 C -3,9 C -5,5 C 0,0 C 79 % 86 % 1033,1 hPa 0,0 l/m 0,0 km/h (0 Bft) W 270 0 min -6,2 C -5,5 C 0,0 km/h (0 Bft)
05.03.2021 22:30 -3,2 C 5,4 C -3,5 C -3,9 C -5,4 C 0,0 C 79 % 86 % 1032,8 hPa 0,0 l/m 0,0 km/h (0 Bft) W 270 0 min -6,3 C -5,4 C 0,0 km/h (0 Bft)
05.03.2021 22:35 -3,1 C 5,4 C -3,6 C -3,9 C -5,4 C 0,0 C 79 % 86 % 1032,8 hPa 0,0 l/m 0,0 km/h (0 Bft) W 270 0 min -6,2 C -5,4 C 0,0 km/h (0 Bft)
05.03.2021 22:40 -3,3 C 5,3 C -3,7 C -4,0 C -5,5 C 0,0 C 80 % 86 % 1032,8 hPa 0,0 l/m 0,0 km/h (0 Bft) W 270 0 min -6,2 C -5,5 C 0,0 km/h (0 Bft)
05.03.2021 22:45 -3,3 C 5,3 C -3,7 C -4,1 C -5,6 C 0,0 C 80 % 86 % 1032,8 hPa 0,0 l/m 0,0 km/h (0 Bft) W 270 0 min -6,2 C -5,6 C 0,0 km/h (0 Bft)
05.03.2021 22:50 -3,3 C 5,3 C -3,8 C -4,1 C -5,7 C 0,0 C 80 % 86 % 1033,6 hPa 0,0 l/m 0,0 km/h (0 Bft) W 270 0 min -6,2 C -5,7 C 0,0 km/h (0 Bft)
05.03.2021 22:55 -3,5 C 5,3 C -3,8 C -4,3 C -5,8 C 0,0 C 80 % 86 % 1033,6 hPa 0,0 l/m 0,0 km/h (0 Bft) W 270 0 min -6,4 C -5,8 C 0,0 km/h (0 Bft)
05.03.2021 23:00 -3,5 C 5,3 C -3,8 C -4,2 C -5,5 C 0,0 C 80 % 87 % 1033,6 hPa 0,0 l/m 0,0 km/h (0 Bft) W 270 0 min -6,4 C -5,5 C 0,0 km/h (0 Bft)
05.03.2021 23:05 -3,6 C 5,3 C -3,8 C -4,2 C -5,5 C 0,0 C 81 % 87 % 1033,6 hPa 0,0 l/m 0,0 km/h (0 Bft) W 270 0 min -6,4 C -5,5 C 0,0 km/h (0 Bft)
05.03.2021 23:10 -3,6 C 5,3 C -3,7 C -4,2 C -5,5 C 0,0 C 81 % 87 % 1033,7 hPa 0,0 l/m 0,0 km/h (0 Bft) W 270 0 min -6,4 C -5,5 C 0,0 km/h (0 Bft)
05.03.2021 23:15 -3,5 C 5,3 C -3,7 C -4,1 C -5,3 C 0,0 C 81 % 87 % 1033,7 hPa 0,0 l/m 0,0 km/h (0 Bft) W 270 0 min -6,3 C -5,3 C 0,0 km/h (0 Bft)
05.03.2021 23:20 -3,5 C 5,3 C -3,8 C -4,1 C -5,3 C 0,0 C 82 % 87 % 1033,7 hPa 0,0 l/m 0,0 km/h (0 Bft) W 270 0 min -6,1 C -5,3 C 0,0 km/h (0 Bft)
05.03.2021 23:25 -3,5 C 5,3 C -3,8 C -4,1 C -5,3 C 0,0 C 82 % 88 % 1033,7 hPa 0,0 l/m 0,0 km/h (0 Bft) W 270 0 min -6,1 C -5,3 C 0,0 km/h (0 Bft)
05.03.2021 23:30 -3,5 C 5,3 C -3,8 C -4,0 C -5,1 C 0,0 C 82 % 88 % 1033,9 hPa 0,0 l/m 0,0 km/h (0 Bft) W 270 0 min -6,1 C -5,1 C 0,0 km/h (0 Bft)
05.03.2021 23:35 -3,5 C 5,3 C -3,9 C -4,0 C -5,1 C 0,0 C 82 % 88 % 1033,9 hPa 0,0 l/m 0,0 km/h (0 Bft) W 270 0 min -6,1 C -5,1 C 0,0 km/h (0 Bft)
05.03.2021 23:40 -3,5 C 5,3 C -3,8 C -4,0 C -4,9 C 0,0 C 82 % 88 % 1033,9 hPa 0,0 l/m 0,0 km/h (0 Bft) W 270 0 min -6,1 C -4,9 C 0,0 km/h (0 Bft)
05.03.2021 23:45 -3,3 C 5,3 C -3,8 C -3,8 C -4,8 C 0,0 C 83 % 88 % 1033,9 hPa 0,0 l/m 0,0 km/h (0 Bft) W 270 0 min -5,8 C -4,8 C 0,0 km/h (0 Bft)
05.03.2021 23:50 -3,5 C 5,3 C -3,9 C -4,1 C -5,2 C 0,0 C 83 % 88 % 1033,6 hPa 0,0 l/m 0,0 km/h (0 Bft) W 270 0 min -6,0 C -5,2 C 0,0 km/h (0 Bft)
05.03.2021 23:55 -3,5 C 5,3 C -4,1 C -4,2 C -5,5 C 0,0 C 83 % 88 % 1033,6 hPa 0,0 l/m 0,0 km/h (0 Bft) W 270 0 min -6,0 C -5,5 C 0,0 km/h (0 Bft)
_ Min-Zeit 23:05 22:40 23:55 22:55 22:55 17:15 15:35 14:40 00:00 - 00:05 - - - 22:55 22:55 00:05
Minimum _ -3,6 C 5,3 C -4,1 C -4,3 C -5,8 C 0,0 C 53 % 56 % 1019,3 hPa - 0,0 km/h (0 Bft) - - - -6,4 C -5,8 C 0,0 km/h (0 Bft)
_ Max-Zeit 15:50 00:00 15:50 13:45 13:45 13:45 01:10 00:00 23:30 05:50 11:40 - - 07:00 10:30 13:45 08:30
Maximum _ 5,1 C 7,0 C 5,1 C 11,4 C 11,4 C 7,4 C 89 % 93 % 1033,9 hPa 0,7 l/m 5,1 km/h
O-NO (1 Bft)
- - 5 min -0,4 C 11,4 C 14,0 km/h
O-NO (3 Bft)
Durchschnitt _ 0,7 C 6,1 C 1,0 C 2,0 C 1,6 C 1,5 C 76 % 81 % 1026,3 hPa #0,7 l/m 1,0 km/h (0 Bft) NO - #4:10 h -3,3 C 1,6 C 1,7 km/h (1 Bft)
2021 www.wetterstation-wechselburg.de